Weather History for EGOP - November, 2012

Change the Weather History Date:

Friday, November 2, 2012

  Actual Average (EGFF) Record (EGFF)
Temperature  
Mean Temperature 46 °F -  
Max Temperature 51 °F 53 °F 62 °F (2005)
Min Temperature 41 °F 44 °F 32 °F (2006)
Degree Days  
Heating Degree Days 19    
Moisture  
Dew Point 39 °F    
Average Humidity 72    
Maximum Humidity 93    
Minimum Humidity 54    
Precipitation  
Precipitation 0.04 in - - ()
Sea Level Pressure  
Sea Level Pressure 29.23 in    
Wind  
Wind Speed 16 mph ()    
Max Wind Speed 37 mph    
Max Gust Speed 51 mph    
Visibility 7.9 miles    
Events Rain    
Averages and records for this station are not official NWS values.
T = Trace of Precipitation, MM = Missing Value Source: Averaged Metar Reports

Daily Weather History Graph

Daily Weather History Graph

Search for Another Location

Airport or City:

Trip Planner

Search our weather history database for the weather conditions in past years. The results will help you decide how hot, cold, wet, or windy it might be!

Date:

Astronomy

Nov. 02, 2012 Rise Set
Actual Time 7:13 AM GMT 4:47 PM GMT
Civil Twilight 6:38 AM GMT 5:22 PM GMT
Nautical Twilight 5:58 AM GMT 6:02 PM GMT
Astronomical Twilight 5:19 AM GMT 6:41 PM GMT
Moon 7:06 PM GMT (11/2) 10:39 AM GMT (11/2)
Length of Visible Light 10h 44m
Length of Day
9h 33m
Waning Gibbous, 88% of the Moon is Illuminated
Nov 2
Waning Gibbous
Nov 7
Last Quarter
Nov 13
New
Nov 20
First Quarter
Nov 28
Full

Hourly Weather History & Observations

Time (GMT) Temp. Windchill Dew Point Humidity Pressure Visibility Wind Dir Wind Speed Gust Speed Precip Events Conditions
12:50 AM 46.4 °F 39.0 °F 41.0 °F 81% 29.12 in 6.2 mi West 19.6 mph - N/A   Mostly Cloudy
1:50 AM 48.2 °F - 39.2 °F 71% 29.12 in 6.2 mi West 18.4 mph - N/A   Mostly Cloudy
2:50 AM 48 °F - 39 °F 61% 29.15 in 18 mi West 16.1 mph - -   Mostly Cloudy
2:50 AM 48.2 °F - 39.2 °F 71% 29.12 in 6.2 mi West 16.1 mph - N/A   Mostly Cloudy
3:50 AM 46.4 °F 38.5 °F 39.2 °F 76% 29.12 in 6.2 mi West 21.9 mph 36.8 mph N/A   Scattered Clouds
4:50 AM 46.4 °F 37.7 °F 37.4 °F 71% 29.15 in 6.2 mi West 26.5 mph 40.3 mph N/A   Mostly Cloudy
5:50 AM 47 °F - 39 °F 67% 29.16 in 13 mi West 15.0 mph - -   Scattered Clouds
5:50 AM 46.4 °F 40.1 °F 39.2 °F 76% 29.15 in 6.2 mi West 15.0 mph - N/A   Scattered Clouds
6:50 AM 44.6 °F 33.8 °F 39.2 °F 81% 29.15 in 6.2 mi West 36.8 mph 50.6 mph N/A   Mostly Cloudy
7:50 AM 46.4 °F 39.5 °F 39.2 °F 76% 29.15 in 6.2 mi WSW 17.3 mph - N/A   Scattered Clouds
8:50 AM 46 °F - 38 °F 65% 29.18 in 12 mi West 16.1 mph - -   Scattered Clouds
8:50 AM 46.4 °F 39.8 °F 37.4 °F 71% 29.18 in 6.2 mi West 16.1 mph - N/A   Scattered Clouds
9:50 AM 46.4 °F 39.8 °F 39.2 °F 76% 29.18 in 6.2 mi West 16.1 mph - N/A   Scattered Clouds
10:50 AM 48.2 °F - 39.2 °F 71% 29.21 in 6.2 mi West 18.4 mph - N/A Rain Light Rain Showers
11:50 AM 49 °F - 39 °F 58% 29.22 in 22 mi West 19.6 mph - -  
11:50 AM 50.0 °F - 39.2 °F 66% 29.21 in 6.2 mi West 19.6 mph - N/A   Partly Cloudy
12:50 PM 50.0 °F - 41.0 °F 71% 29.24 in 6.2 mi West 17.3 mph - N/A   Partly Cloudy
1:50 PM 51.8 °F - 39.2 °F 62% 29.24 in 6.2 mi West 16.1 mph - N/A   Unknown
2:50 PM 51 °F - 40 °F 56% 29.26 in 19 mi West 18.4 mph - -   Scattered Clouds
2:50 PM 50.0 °F - 39.2 °F 66% 29.24 in 6.2 mi West 18.4 mph - N/A   Partly Cloudy
3:50 PM 50.0 °F - 39.2 °F 66% 29.27 in 6.2 mi West 19.6 mph - N/A   Unknown
4:50 PM 50.0 °F - 39.2 °F 66% 29.27 in 6.2 mi West 19.6 mph - N/A   Unknown
5:50 PM 49 °F - 38 °F 54% 29.30 in 11 mi West 15.0 mph - -  
5:50 PM 50.0 °F - 37.4 °F 62% 29.30 in 6.2 mi West 15.0 mph - N/A   Unknown
6:50 PM 48.2 °F - 39.2 °F 71% 29.30 in 6.2 mi West 10.4 mph - N/A   Partly Cloudy
7:50 PM 44.6 °F 36.9 °F 41.0 °F 87% 29.33 in 1.9 mi WSW 18.4 mph - N/A   Scattered Clouds
8:50 PM 45 °F - 39 °F 71% 29.33 in 16 mi WNW 6.9 mph - -   Partly Cloudy
8:50 PM 44.6 °F 40.7 °F 39.2 °F 81% 29.33 in 6.2 mi WNW 6.9 mph - N/A   Scattered Clouds
9:50 PM 44.6 °F 38.1 °F 39.2 °F 81% 29.33 in 6.2 mi SSW 13.8 mph - N/A   Scattered Clouds
10:50 PM 46.4 °F 41.5 °F 39.2 °F 76% 29.30 in 6.2 mi West 10.4 mph - N/A   Mostly Cloudy
11:50 PM 41 °F - 39 °F 92% 29.32 in 10 mi ESE 8.1 mph - -   Scattered Clouds
11:50 PM 41.0 °F 35.8 °F 39.2 °F 93% 29.30 in 6.2 mi ESE 8.1 mph - N/A   Scattered Clouds